Flag for Norway Weather past 2 weeks in Drammen, Norway

50 °F


Feels Like: N/A
Forecast: 28 / 49 °F
Wind: N/A

Location: Oslo / Fornebu

Current Time: Oct 14, 2015 at 12:12:13 AM

Latest Report: Oct 13, 2015 at 11:20 PM

Visibility: N/A

Pressure: 30.39 "Hg

Humidity: 82%

Dew point: 45 °F

Location of DrammenLocation

Historic Weather in Drammen — Graph


Drammen temperature yesterday

Maximum temperature yesterday: 52 °F (at 12:50 AM)
Minimum temperature yesterday: 50 °F (at 12:20 AM)
Average temperature yesterday: 51 °F

Past Weeks' High & Low Weather Summary

High61 °F (Oct 5, 11:50 PM)100% (Sep 29, 7:50 AM)30.57 "Hg (Sep 29, 7:50 AM)
Low50 °F (Oct 3, 2:50 AM)55% (Oct 6, 7:50 PM)29.74 "Hg (Oct 6, 7:20 AM)
Average53 °F84%30.13 "Hg
* Reported Sep 29 6:20 AM — Oct 13 9:20 PM, Drammen, Weather by CustomWeather, © 2015

Note: Actual official high and low records may vary slightly from our data, if they occured in-between our weather recording intervals... More about our weather records


Drammen weather history for previous 24 hours

Time TempWeatherWind HumidityBarometerVisibility
9:20 PM
Tue, Oct 13
50 °FPassing clouds.8 mph82%30.39 "HgN/A
8:50 PM50 °FPassing clouds.8 mph82%30.39 "HgN/A
8:20 PM50 °FPassing clouds.7 mph82%30.36 "HgN/A
7:50 PM50 °FPassing clouds.6 mph82%30.36 "HgN/A
7:20 PM50 °FPassing clouds.6 mph82%30.36 "HgN/A
6:50 PM50 °FPartly sunny.6 mph82%30.36 "HgN/A
6:20 PM50 °FBroken clouds.7 mph88%30.36 "HgN/A
5:50 PM52 °FMostly cloudy.6 mph82%30.36 "HgN/A
5:20 PM52 °FMostly cloudy.6 mph82%30.36 "HgN/A
4:50 PM52 °FOvercast.5 mph88%30.36 "HgN/A
4:20 PM52 °FBroken clouds.7 mph88%30.36 "HgN/A
3:50 PM52 °FSprinkles. Partly sunny.7 mph88%30.36 "HgN/A
3:20 PM52 °FPartly sunny.14 mph88%30.36 "HgN/A
2:50 PM52 °FPartly sunny.17 mph88%30.36 "HgN/A
2:20 PM52 °FOvercast.18 mph88%30.36 "HgN/A
1:50 PM52 °FOvercast.20 mph88%30.36 "HgN/A
1:20 PM52 °FPartly sunny.22 mph82%30.36 "HgN/A
12:50 PM52 °FPartly sunny.23 mph88%30.36 "HgN/A
12:20 PM52 °FPartly sunny.23 mph82%30.36 "HgN/A
11:50 AM52 °FOvercast.23 mph88%30.36 "HgN/A
11:20 AM52 °FOvercast.24 mph82%30.36 "HgN/A
10:50 AM52 °FPartly sunny.24 mph82%30.36 "HgN/A
10:20 AM52 °FPartly sunny.23 mph88%30.36 "HgN/A
9:50 AM52 °FPartly sunny.23 mph82%30.36 "HgN/A
9:20 AM52 °FBroken clouds.22 mph82%30.33 "HgN/A
8:50 AM52 °FPartly sunny.20 mph82%30.33 "HgN/A
8:20 AM52 °FPassing clouds.18 mph82%30.36 "HgN/A
7:50 AM52 °FPassing clouds.20 mph88%30.33 "HgN/A
7:20 AM52 °FPartly cloudy.20 mph88%30.33 "HgN/A
6:50 AM52 °FPassing clouds.20 mph88%30.33 "HgN/A
6:20 AM52 °FPassing clouds.20 mph88%30.33 "HgN/A
5:50 AM52 °FCool.18 mph82%30.33 "HgN/A
5:20 AM52 °FPassing clouds.18 mph82%30.33 "HgN/A
4:50 AM52 °FPassing clouds.20 mph88%30.33 "HgN/A
4:20 AM52 °FPassing clouds.18 mph82%30.33 "HgN/A
3:50 AM52 °FPassing clouds.20 mph82%30.33 "HgN/A
3:20 AM52 °FPassing clouds.20 mph88%30.33 "HgN/A
2:50 AM52 °FPassing clouds.18 mph82%30.33 "HgN/A
2:20 AM52 °FOvercast.17 mph82%30.33 "HgN/A
1:50 AM52 °FPassing clouds.20 mph82%30.33 "HgN/A
1:20 AM52 °FPassing clouds.18 mph82%30.33 "HgN/A
12:50 AM52 °FPassing clouds.20 mph82%30.33 "HgN/A
12:20 AM50 °FPassing clouds.21 mph88%30.30 "HgN/A
Weather by CustomWeather, © 2015

See weather overviewHow to use our weather pages